Change the Weather History Date:

Thursday, May 23, 2013

  Actual Average Record
Temperature  
Mean Temperature 41 °F -  
Max Temperature 50 °F 69 °F 81 °F (1991)
Min Temperature 31 °F 46 °F 30 °F (2003)
Degree Days  
Heating Degree Days 24    
Moisture  
Dew Point 31 °F    
Average Humidity 69    
Maximum Humidity 100    
Minimum Humidity 41    
Precipitation  
Precipitation 0.02 in - - ()
Sea Level Pressure  
Sea Level Pressure 30.19 in    
Wind  
Wind Speed 13 mph (NNE)    
Max Wind Speed 18 mph    
Max Gust Speed 28 mph    
Visibility 10 miles    
Events      
Averages and records for this station are not official NWS values.
T = Trace of Precipitation, MM = Missing Value Source: NWS Daily Summary

Daily Weather History Graph

Daily Weather History Graph

Search for Another Location

Airport or City:

Trip Planner

Search our weather history database for the weather conditions in past years. The results will help you decide how hot, cold, wet, or windy it might be!

Date:

Astronomy

May. 23, 2013 Rise Set
Actual Time 5:16 AM CDT 8:31 PM CDT
Civil Twilight 4:40 AM CDT 9:08 PM CDT
Nautical Twilight 3:53 AM CDT 9:55 PM CDT
Astronomical Twilight 2:54 AM CDT 10:54 PM CDT
Moon 7:00 PM CDT (5/23) 4:07 AM CDT (5/23)
Length of Visible Light 16h 27m
Length of Day
15h 15m
Waxing Gibbous, 97% of the Moon is Illuminated
May 23
Waxing Gibbous
May 24
Full
May 31
Last Quarter
Jun 8
New
Jun 16
First Quarter

Hourly Weather History & Observations

Time (CDT) Temp. Windchill Dew Point Humidity Pressure Visibility Wind Dir Wind Speed Gust Speed Precip Events Conditions
12:15 AM 41.9 °F 35.0 °F 39.7 °F 92% 29.98 in 10.0 mi NNE 12.7 mph 24.2 mph N/A   Overcast
12:35 AM 41.2 °F 33.7 °F 39.7 °F 95% 29.99 in 10.0 mi NNE 13.8 mph 19.6 mph N/A   Overcast
12:55 AM 40.3 °F 32.6 °F 38.7 °F 94% 29.99 in 10.0 mi North 13.8 mph 18.4 mph N/A   Overcast
1:15 AM 39.4 °F 31.8 °F 38.1 °F 95% 30.00 in 10.0 mi North 12.7 mph - N/A   Overcast
1:35 AM 38.7 °F 30.1 °F 37.2 °F 95% 30.00 in 10.0 mi North 15.0 mph - N/A   Overcast
1:55 AM 38.3 °F 30.1 °F 36.7 °F 94% 30.01 in 10.0 mi NNE 13.8 mph 21.9 mph N/A   Overcast
2:15 AM 37.8 °F 29.8 °F 36.1 °F 94% 30.01 in 10.0 mi NNE 12.7 mph 20.7 mph N/A   Overcast
2:35 AM 37.8 °F 28.6 °F 36.0 °F 93% 30.01 in 10.0 mi NNE 16.1 mph 21.9 mph N/A   Overcast
2:55 AM 37.6 °F 28.4 °F 35.4 °F 92% 30.02 in 10.0 mi NNE 16.1 mph 24.2 mph N/A   Overcast
3:15 AM 37.4 °F 28.5 °F 34.9 °F 91% 30.02 in 10.0 mi NNE 15.0 mph 25.3 mph N/A   Overcast
3:35 AM 37.4 °F 29.3 °F 34.9 °F 91% 30.03 in 10.0 mi NNE 12.7 mph 18.4 mph N/A   Overcast
3:55 AM 37.2 °F 29.1 °F 34.7 °F 91% 30.03 in 10.0 mi NNE 12.7 mph 18.4 mph N/A   Overcast
4:15 AM 36.9 °F 29.1 °F 33.8 °F 89% 30.04 in 10.0 mi NNE 11.5 mph 19.6 mph N/A   Overcast
4:35 AM 36.7 °F 27.6 °F 33.3 °F 87% 30.05 in 10.0 mi NNE 15.0 mph 20.7 mph N/A   Overcast
4:55 AM 36.5 °F 27.0 °F 32.5 °F 86% 30.06 in 10.0 mi NNE 16.1 mph 21.9 mph N/A   Overcast
5:15 AM 36.1 °F 28.2 °F 32.0 °F 85% 30.07 in 10.0 mi NNE 11.5 mph 19.6 mph N/A   Overcast
5:35 AM 35.8 °F 26.5 °F 31.8 °F 86% 30.09 in 10.0 mi NNE 15.0 mph 18.4 mph N/A   Overcast
5:55 AM 35.8 °F 25.4 °F 30.9 °F 82% 30.10 in 10.0 mi NNE 18.4 mph 27.6 mph N/A   Overcast
6:15 AM 35.6 °F 25.5 °F 30.4 °F 81% 30.10 in 10.0 mi NNE 17.3 mph 27.6 mph N/A   Overcast
6:35 AM 35.8 °F 25.7 °F 32.0 °F 86% 30.11 in 10.0 mi NE 17.3 mph 26.5 mph N/A   Overcast
6:55 AM 35.8 °F 26.1 °F 31.8 °F 86% 30.12 in 10.0 mi NNE 16.1 mph 26.5 mph N/A   Overcast
7:15 AM 36.1 °F 25.9 °F 32.2 °F 86% 30.13 in 10.0 mi NNE 18.4 mph 23.0 mph N/A   Overcast
7:35 AM 36.7 °F 26.6 °F 30.0 °F 77% 30.14 in 10.0 mi North 18.4 mph 25.3 mph N/A   Overcast
7:55 AM 36.9 °F 27.5 °F 29.3 °F 74% 30.15 in 10.0 mi NNE 16.1 mph 26.5 mph N/A   Overcast
8:15 AM 36.7 °F 26.9 °F 28.9 °F 74% 30.16 in 10.0 mi North 17.3 mph 24.2 mph N/A   Overcast
8:35 AM 36.5 °F 27.4 °F 28.6 °F 73% 30.17 in 10.0 mi NNE 15.0 mph 20.7 mph N/A   Mostly Cloudy
8:55 AM 38.3 °F 29.7 °F 28.9 °F 69% 30.18 in 10.0 mi NNE 15.0 mph 21.9 mph N/A   Scattered Clouds
9:15 AM 38.5 °F 29.9 °F 28.4 °F 67% 30.18 in 10.0 mi NNE 15.0 mph 23.0 mph N/A   Scattered Clouds
9:35 AM 40.6 °F 32.7 °F 29.7 °F 65% 30.20 in 10.0 mi NNE 15.0 mph 18.4 mph N/A   Mostly Cloudy
9:55 AM 38.5 °F 29.9 °F 28.4 °F 67% 30.20 in 10.0 mi North 15.0 mph - N/A   Overcast
10:15 AM 39.7 °F 30.9 °F 28.6 °F 64% 30.21 in 10.0 mi NNE 17.3 mph 20.7 mph N/A   Mostly Cloudy
10:35 AM 39.9 °F 31.8 °F 29.1 °F 65% 30.21 in 10.0 mi NNE 15.0 mph 19.6 mph N/A   Mostly Cloudy
10:55 AM 40.3 °F 33.0 °F 28.9 °F 64% 30.22 in 10.0 mi North 12.7 mph 19.6 mph N/A   Mostly Cloudy
11:15 AM 41.5 °F 35.4 °F 30.2 °F 64% 30.22 in 10.0 mi NNE 10.4 mph 18.4 mph N/A   Mostly Cloudy
11:35 AM 41.9 °F 34.6 °F 28.2 °F 58% 30.23 in 10.0 mi North 13.8 mph 21.9 mph N/A   Scattered Clouds
11:55 AM 43.3 °F 37.2 °F 29.7 °F 59% 30.22 in 10.0 mi North 11.5 mph 21.9 mph N/A   Scattered Clouds
12:15 PM 43.7 °F 36.0 °F 29.3 °F 57% 30.23 in 10.0 mi North 17.3 mph 23.0 mph N/A   Scattered Clouds
12:35 PM 45.3 °F 39.0 °F 29.7 °F 54% 30.23 in 10.0 mi NNE 13.8 mph 25.3 mph N/A   Clear
12:55 PM 45.5 °F 38.6 °F 29.8 °F 54% 30.23 in 10.0 mi North 16.1 mph 20.7 mph N/A   Scattered Clouds
1:15 PM 46.6 °F - 31.1 °F 55% 30.23 in 10.0 mi North 13.8 mph 19.6 mph N/A   Clear
1:35 PM 46.6 °F - 29.7 °F 52% 30.23 in 10.0 mi North 12.7 mph 19.6 mph N/A   Clear
1:55 PM 47.5 °F - 31.3 °F 53% 30.23 in 10.0 mi North 11.5 mph 18.4 mph N/A   Clear
2:15 PM 49.1 °F - 30.7 °F 49% 30.24 in 10.0 mi NNE 13.8 mph 18.4 mph N/A   Clear
2:35 PM 48.4 °F - 30.2 °F 49% 30.24 in 10.0 mi North 9.2 mph 18.4 mph N/A   Clear
2:55 PM 48.9 °F - 29.8 °F 48% 30.25 in 10.0 mi NNW 16.1 mph 21.9 mph N/A   Clear
3:15 PM 49.3 °F - 28.6 °F 45% 30.25 in 10.0 mi North 12.7 mph 23.0 mph N/A   Clear
3:35 PM 49.3 °F - 26.8 °F 42% 30.25 in 10.0 mi North 15.0 mph 20.7 mph N/A   Clear
3:55 PM 50.0 °F - 26.8 °F 41% 30.25 in 10.0 mi North 17.3 mph 23.0 mph N/A   Clear
4:15 PM 49.5 °F - 27.1 °F 42% 30.26 in 10.0 mi North 15.0 mph 23.0 mph N/A   Clear
4:35 PM 49.6 °F - 27.0 °F 41% 30.26 in 10.0 mi North 10.4 mph - N/A   Clear
4:55 PM 49.8 °F - 28.0 °F 43% 30.26 in 10.0 mi North 11.5 mph 20.7 mph N/A   Clear
5:15 PM 50.0 °F - 27.7 °F 42% 30.27 in 10.0 mi NNW 11.5 mph - N/A   Clear
5:35 PM 49.3 °F - 27.3 °F 43% 30.27 in 10.0 mi North 11.5 mph 18.4 mph N/A   Clear
5:55 PM 49.1 °F - 27.1 °F 43% 30.27 in 10.0 mi North 13.8 mph 19.6 mph N/A   Clear
6:15 PM 48.9 °F - 27.3 °F 43% 30.27 in 10.0 mi NNE 10.4 mph 20.7 mph N/A   Clear
6:35 PM 48.7 °F - 27.9 °F 44% 30.28 in 10.0 mi North 10.4 mph - N/A   Clear
6:55 PM 48.4 °F - 28.2 °F 46% 30.29 in 10.0 mi North 11.5 mph 16.1 mph N/A   Clear
7:15 PM 47.5 °F - 27.5 °F 46% 30.29 in 10.0 mi North 9.2 mph - N/A   Clear
7:35 PM 46.6 °F - 26.8 °F 46% 30.29 in 10.0 mi North 6.9 mph - N/A   Clear
7:55 PM 45.7 °F 42.0 °F 27.5 °F 49% 30.30 in 10.0 mi North 6.9 mph - N/A   Clear
8:15 PM 43.7 °F 41.1 °F 28.0 °F 54% 30.30 in 10.0 mi NNW 4.6 mph - N/A   Clear
8:35 PM 42.3 °F 39.4 °F 28.0 °F 57% 30.31 in 10.0 mi North 4.6 mph - N/A   Clear
8:55 PM 41.0 °F 38.0 °F 28.8 °F 62% 30.31 in 10.0 mi North 4.6 mph - N/A   Clear
9:15 PM 38.8 °F 36.5 °F 29.1 °F 68% 30.32 in 10.0 mi North 3.5 mph - N/A   Clear
9:35 PM 39.0 °F - 30.0 °F 70% 30.32 in 10.0 mi Calm Calm - N/A   Clear
9:55 PM 35.1 °F - 30.0 °F 82% 30.33 in 10.0 mi Calm Calm - N/A   Clear
10:15 PM 35.2 °F - 30.2 °F 82% 30.33 in 10.0 mi Calm Calm - N/A   Clear
10:55 PM 32.5 °F - 29.1 °F 87% 30.34 in 10.0 mi Calm Calm - N/A   Clear
11:15 PM 32.4 °F - 31.6 °F 97% 30.33 in 10.0 mi Calm Calm - N/A   Clear
11:35 PM 32.4 °F - 32.0 °F 99% 30.33 in 10.0 mi Calm Calm - N/A   Clear
11:55 PM 31.1 °F - 31.1 °F 100% 30.33 in 10.0 mi Calm Calm - N/A   Clear